Location: Dunedin
(45.8670°S, 170.5000°E)
Time: 10:51:33
(UTC+13:00)

Cosmos 2181 Rocket - Pass Details

Date: 24 January 2019
Orbit: 952 x 1015 km, 82.9° (Epoch: 15 February)

Event Time Altitude Azimuth Distance (km) Brightness Sun altitude
Rises 23:28:15 0° 185° (S) 3,675 8.1 -17.4°
Reaches altitude 10° 23:30:52 10° 179° (S) 2,727 7.1 -17.7°
Maximum altitude 23:36:55 50° 104° (ESE) 1,225 4.4 -18.3°
Enters shadow 23:39:47 30° 45° (NE) 1,688 4.7 -18.5°
